Kosmos-1324

operational
NORAD ID: 12979 Int'l Des: 1981-116 Owner: GUKOS Country: SU
LEOCIRCULAR

关于 Kosmos-1324

正在加载描述...

实时位置

正在加载3D地球...

即将过境

高度历史

Altitude vs Time

uPlot chart will show altitude changes over time

两行轨道根数

1 12979U 81116E 26072.51153076 -.00000005 00000-0 91465-4 0 9995
2 12979 73.9796 116.3896 0087677 340.2978 87.2847 12.29738940988166
Epoch: Mar 13, 2026 • Age: 23 hours

当前状态

高度 1620.4 km
速度 7.03 km/s
星下点 9.39°N, 142.63°E
发射日期 Nov 28, 1981
运行时间 44.2 years
类型 other

技术详情

分类 Payload
质量 60.00 kg
干质量 60.00 kg
总质量 60.00 kg
长度 0.80 m
直径 0.80 m
跨度 0.80 m
形状 Poly
制造商 NPOPM
平台类型 Strela-1 11F625
阶段状态 In Orbit
所有者/国家 GUKOS/SU

大型星座

Loading constellations...